Time,TemperatureF,DewpointF,PressureIn,WindDirection,WindDirectionDegrees,WindSpeedMPH,WindSpeedGustMPH,Humidity,HourlyPrecipIn,Conditions,Clouds,dailyrainin,SoftwareType,DateUTC
2013-09-09 00:06:00,75.6,73.0,29.96,NE,51,0.0,1.0,92,0.00,,,0.00,weatherlink.com 1.10,2013-09-09 04:06:00,
2013-09-09 00:21:00,75.4,73.0,29.96,NE,51,0.0,1.0,92,0.00,,,0.00,weatherlink.com 1.10,2013-09-09 04:21:00,
2013-09-09 00:36:00,75.2,73.0,29.95,NE,51,0.0,1.0,93,0.00,,,0.00,weatherlink.com 1.10,2013-09-09 04:36:00,
2013-09-09 00:51:00,74.8,73.0,29.95,NE,51,0.0,0.0,93,0.00,,,0.00,weatherlink.com 1.10,2013-09-09 04:51:00,
2013-09-09 01:06:00,74.1,72.0,29.95,NE,51,0.0,0.0,92,0.00,,,0.00,weatherlink.com 1.10,2013-09-09 05:06:00,
2013-09-09 01:21:00,73.6,71.0,29.95,NE,51,0.0,0.0,92,0.00,,,0.00,weatherlink.com 1.10,2013-09-09 05:21:00,
2013-09-09 01:36:00,73.1,71.0,29.95,NE,51,0.0,0.0,92,0.00,,,0.00,weatherlink.com 1.10,2013-09-09 05:36:00,
2013-09-09 01:51:00,73.1,71.0,29.94,NE,51,0.0,0.0,94,0.00,,,0.00,weatherlink.com 1.10,2013-09-09 05:51:00,
2013-09-09 02:06:00,73.3,72.0,29.94,NE,51,0.0,0.0,94,0.00,,,0.00,weatherlink.com 1.10,2013-09-09 06:06:00,
2013-09-09 02:21:00,73.2,71.0,29.94,NE,51,0.0,0.0,94,0.00,,,0.00,weatherlink.com 1.10,2013-09-09 06:21:00,
2013-09-09 02:36:00,72.9,71.0,29.94,NE,50,0.0,0.0,94,0.00,,,0.00,weatherlink.com 1.10,2013-09-09 06:36:00,
2013-09-09 02:51:00,72.4,71.0,29.93,NE,51,0.0,0.0,94,0.00,,,0.00,weatherlink.com 1.10,2013-09-09 06:51:00,
2013-09-09 03:06:00,72.0,70.0,29.93,NE,51,0.0,0.0,94,0.00,,,0.00,weatherlink.com 1.10,2013-09-09 07:06:00,
2013-09-09 03:22:00,71.6,70.0,29.92,NE,51,0.0,0.0,94,0.00,,,0.00,weatherlink.com 1.10,2013-09-09 07:22:00,
2013-09-09 03:37:00,71.5,70.0,29.92,NE,51,0.0,0.0,95,0.00,,,0.00,weatherlink.com 1.10,2013-09-09 07:37:00,
2013-09-09 03:52:00,71.5,70.0,29.92,NE,51,0.0,0.0,95,0.00,,,0.00,weatherlink.com 1.10,2013-09-09 07:52:00,
2013-09-09 04:07:00,71.3,70.0,29.92,NE,51,0.0,0.0,95,0.00,,,0.00,weatherlink.com 1.10,2013-09-09 08:07:00,
2013-09-09 04:22:00,71.5,70.0,29.92,NE,51,0.0,0.0,95,0.00,,,0.00,weatherlink.com 1.10,2013-09-09 08:22:00,
2013-09-09 04:37:00,71.3,70.0,29.92,NE,51,0.0,0.0,95,0.00,,,0.00,weatherlink.com 1.10,2013-09-09 08:37:00,
2013-09-09 04:52:00,71.1,70.0,29.92,NE,51,0.0,0.0,95,0.00,,,0.00,weatherlink.com 1.10,2013-09-09 08:52:00,
2013-09-09 05:07:00,70.9,70.0,29.93,NE,51,0.0,0.0,95,0.00,,,0.00,weatherlink.com 1.10,2013-09-09 09:07:00,
2013-09-09 05:22:00,70.8,69.0,29.93,NE,50,0.0,0.0,95,0.00,,,0.00,weatherlink.com 1.10,2013-09-09 09:22:00,
2013-09-09 05:37:00,70.6,69.0,29.93,NE,51,0.0,0.0,95,0.00,,,0.00,weatherlink.com 1.10,2013-09-09 09:37:00,
2013-09-09 05:52:00,70.6,70.0,29.93,NE,51,0.0,0.0,96,0.00,,,0.00,weatherlink.com 1.10,2013-09-09 09:52:00,
2013-09-09 06:07:00,71.7,71.0,29.94,NE,51,0.0,0.0,96,0.00,,,0.00,weatherlink.com 1.10,2013-09-09 10:07:00,
2013-09-09 06:22:00,71.8,71.0,29.94,NE,51,0.0,0.0,96,0.00,,,0.00,weatherlink.com 1.10,2013-09-09 10:22:00,
2013-09-09 06:37:00,72.1,71.0,29.94,NE,51,0.0,0.0,96,0.00,,,0.00,weatherlink.com 1.10,2013-09-09 10:37:00,
2013-09-09 06:52:00,72.1,71.0,29.95,NE,51,0.0,0.0,96,0.00,,,0.00,weatherlink.com 1.10,2013-09-09 10:52:00,
2013-09-09 07:07:00,71.9,71.0,29.95,NE,51,0.0,0.0,97,0.00,,,0.00,weatherlink.com 1.10,2013-09-09 11:07:00,
2013-09-09 07:22:00,71.6,71.0,29.95,NE,51,0.0,0.0,97,0.00,,,0.00,weatherlink.com 1.10,2013-09-09 11:22:00,
2013-09-09 07:37:00,71.2,70.0,29.96,NE,51,0.0,0.0,97,0.00,,,0.00,weatherlink.com 1.10,2013-09-09 11:37:00,
2013-09-09 07:52:00,71.0,70.0,29.96,NE,51,0.0,0.0,97,0.00,,,0.00,weatherlink.com 1.10,2013-09-09 11:52:00,
2013-09-09 08:07:00,72.4,72.0,29.96,NE,51,0.0,1.0,97,0.00,,,0.00,weatherlink.com 1.10,2013-09-09 12:07:00,
2013-09-09 08:22:00,74.2,73.0,29.97,NE,51,2.0,3.0,97,0.00,,,0.00,weatherlink.com 1.10,2013-09-09 12:22:00,
2013-09-09 08:37:00,75.6,75.0,29.97,NE,36,3.0,4.0,98,0.00,,,0.00,weatherlink.com 1.10,2013-09-09 12:37:00,
2013-09-09 08:52:00,77.1,76.0,29.98,NNE,26,5.0,6.0,96,0.00,,,0.00,weatherlink.com 1.10,2013-09-09 12:52:00,
2013-09-09 09:07:00,78.6,77.0,29.98,NE,38,5.0,9.0,93,0.00,,,0.00,weatherlink.com 1.10,2013-09-09 13:07:00,
2013-09-09 09:22:00,79.9,77.0,29.98,NE,46,3.0,8.0,90,0.00,,,0.00,weatherlink.com 1.10,2013-09-09 13:22:00,
2013-09-09 09:37:00,80.9,76.0,29.98,NE,43,4.0,9.0,86,0.00,,,0.00,weatherlink.com 1.10,2013-09-09 13:37:00,
2013-09-09 09:52:00,81.6,77.0,29.99,NE,37,4.0,10.0,85,0.00,,,0.00,weatherlink.com 1.10,2013-09-09 13:52:00,
2013-09-09 10:07:00,82.6,77.0,29.99,ENE,59,2.0,10.0,82,0.00,,,0.00,weatherlink.com 1.10,2013-09-09 14:07:00,
2013-09-09 10:22:00,82.3,76.0,30.00,NNE,30,4.0,9.0,80,0.00,,,0.00,weatherlink.com 1.10,2013-09-09 14:22:00,
2013-09-09 10:37:00,83.7,76.0,30.00,NE,34,5.0,10.0,77,0.00,,,0.00,weatherlink.com 1.10,2013-09-09 14:37:00,
2013-09-09 10:52:00,84.3,76.0,30.00,NE,45,3.0,9.0,75,0.00,,,0.00,weatherlink.com 1.10,2013-09-09 14:52:00,
2013-09-09 11:07:00,83.3,76.0,30.01,NE,55,5.0,8.0,78,0.00,,,0.00,weatherlink.com 1.10,2013-09-09 15:07:00,
2013-09-09 11:22:00,82.8,75.0,30.01,East,84,2.0,8.0,77,0.00,,,0.00,weatherlink.com 1.10,2013-09-09 15:22:00,
2013-09-09 11:37:00,83.9,75.0,30.00,NE,46,1.0,4.0,74,0.00,,,0.00,weatherlink.com 1.10,2013-09-09 15:37:00,
2013-09-09 11:52:00,85.7,75.0,30.00,ENE,61,0.0,6.0,70,0.00,,,0.00,weatherlink.com 1.10,2013-09-09 15:52:00,
2013-09-09 12:07:00,86.5,75.0,30.00,ENE,59,4.0,11.0,69,0.00,,,0.00,weatherlink.com 1.10,2013-09-09 16:07:00,
2013-09-09 12:22:00,87.9,76.0,29.99,NE,47,6.0,9.0,67,0.00,,,0.00,weatherlink.com 1.10,2013-09-09 16:22:00,
2013-09-09 12:37:00,88.9,75.0,29.99,ENE,74,1.0,8.0,63,0.00,,,0.00,weatherlink.com 1.10,2013-09-09 16:37:00,
2013-09-09 12:53:00,88.7,75.0,29.98,ENE,63,2.0,10.0,65,0.00,,,0.00,weatherlink.com 1.10,2013-09-09 16:53:00,
2013-09-09 13:08:00,89.6,74.0,29.98,ESE,114,1.0,8.0,61,0.00,,,0.00,weatherlink.com 1.10,2013-09-09 17:08:00,
2013-09-09 13:23:00,90.0,74.0,29.98,ENE,59,2.0,4.0,59,0.00,,,0.00,weatherlink.com 1.10,2013-09-09 17:23:00,
2013-09-09 13:38:00,88.7,74.0,29.98,ENE,60,8.0,9.0,63,0.00,,,0.00,weatherlink.com 1.10,2013-09-09 17:38:00,
2013-09-09 13:53:00,88.8,74.0,29.97,ENE,60,0.0,8.0,62,0.00,,,0.00,weatherlink.com 1.10,2013-09-09 17:53:00,
2013-09-09 14:08:00,89.4,75.0,29.97,NNE,33,3.0,8.0,62,0.00,,,0.00,weatherlink.com 1.10,2013-09-09 18:08:00,
2013-09-09 14:23:00,87.8,74.0,29.97,ESE,107,3.0,9.0,64,0.00,,,0.00,weatherlink.com 1.10,2013-09-09 18:23:00,
2013-09-09 14:38:00,90.4,75.0,29.96,NE,40,2.0,7.0,60,0.00,,,0.00,weatherlink.com 1.10,2013-09-09 18:38:00,
2013-09-09 14:53:00,89.3,74.0,29.95,East,82,3.0,8.0,61,0.00,,,0.00,weatherlink.com 1.10,2013-09-09 18:53:00,
2013-09-09 15:08:00,88.2,73.0,29.95,NE,44,5.0,7.0,60,0.00,,,0.00,weatherlink.com 1.10,2013-09-09 19:08:00,
2013-09-09 15:23:00,87.5,73.0,29.95,ENE,59,3.0,10.0,62,0.00,,,0.00,weatherlink.com 1.10,2013-09-09 19:23:00,
2013-09-09 15:38:00,90.5,74.0,29.95,ESE,103,5.0,9.0,58,0.00,,,0.00,weatherlink.com 1.10,2013-09-09 19:38:00,
2013-09-09 15:53:00,91.2,74.0,29.95,NE,45,7.0,9.0,57,0.00,,,0.00,weatherlink.com 1.10,2013-09-09 19:53:00,
2013-09-09 16:08:00,90.6,73.0,29.95,NE,36,5.0,10.0,56,0.00,,,0.00,weatherlink.com 1.10,2013-09-09 20:08:00,
2013-09-09 16:23:00,88.8,72.0,29.95,NE,39,4.0,9.0,57,0.00,,,0.00,weatherlink.com 1.10,2013-09-09 20:23:00,
2013-09-09 16:38:00,90.1,73.0,29.94,NE,35,6.0,9.0,57,0.00,,,0.00,weatherlink.com 1.10,2013-09-09 20:38:00,
2013-09-09 16:53:00,89.9,71.0,29.93,East,92,6.0,10.0,54,0.00,,,0.00,weatherlink.com 1.10,2013-09-09 20:53:00,
2013-09-09 17:08:00,90.0,71.0,29.93,NE,34,5.0,11.0,54,0.00,,,0.00,weatherlink.com 1.10,2013-09-09 21:08:00,
2013-09-09 17:23:00,88.0,70.0,29.94,ENE,73,4.0,9.0,55,0.00,,,0.00,weatherlink.com 1.10,2013-09-09 21:23:00,
2013-09-09 17:38:00,87.2,71.0,29.94,ENE,64,3.0,10.0,59,0.00,,,0.00,weatherlink.com 1.10,2013-09-09 21:38:00,
2013-09-09 17:53:00,86.3,71.0,29.94,ENE,65,2.0,10.0,60,0.00,,,0.00,weatherlink.com 1.10,2013-09-09 21:53:00,
2013-09-09 18:08:00,87.1,72.0,29.94,NNE,26,7.0,9.0,61,0.00,,,0.00,weatherlink.com 1.10,2013-09-09 22:08:00,
2013-09-09 18:23:00,87.2,71.0,29.94,ENE,64,5.0,8.0,58,0.00,,,0.00,weatherlink.com 1.10,2013-09-09 22:23:00,
2013-09-09 18:38:00,86.7,71.0,29.94,NNE,24,3.0,11.0,60,0.00,,,0.00,weatherlink.com 1.10,2013-09-09 22:38:00,
2013-09-09 18:53:00,86.1,71.0,29.94,NNE,33,2.0,9.0,61,0.00,,,0.00,weatherlink.com 1.10,2013-09-09 22:53:00,
2013-09-09 19:08:00,85.8,72.0,29.95,ENE,64,8.0,8.0,63,0.00,,,0.00,weatherlink.com 1.10,2013-09-09 23:08:00,
2013-09-09 19:23:00,84.7,72.0,29.96,NE,55,2.0,10.0,65,0.00,,,0.00,weatherlink.com 1.10,2013-09-09 23:23:00,
2013-09-09 19:38:00,83.8,72.0,29.96,NE,51,3.0,6.0,67,0.00,,,0.00,weatherlink.com 1.10,2013-09-09 23:38:00,
2013-09-09 19:53:00,82.8,72.0,29.97,ENE,60,3.0,6.0,69,0.00,,,0.00,weatherlink.com 1.10,2013-09-09 23:53:00,
2013-09-09 20:08:00,82.1,72.0,29.97,NE,49,3.0,7.0,71,0.00,,,0.00,weatherlink.com 1.10,2013-09-10 00:08:00,
2013-09-09 20:23:00,81.5,73.0,29.97,ENE,70,2.0,8.0,74,0.00,,,0.00,weatherlink.com 1.10,2013-09-10 00:23:00,
2013-09-09 20:38:00,80.9,73.0,29.98,NNE,30,3.0,3.0,76,0.00,,,0.00,weatherlink.com 1.10,2013-09-10 00:38:00,
2013-09-09 20:53:00,80.3,73.0,29.98,NE,47,2.0,5.0,78,0.00,,,0.00,weatherlink.com 1.10,2013-09-10 00:53:00,
2013-09-09 21:08:00,79.8,73.0,29.99,NE,48,0.0,2.0,80,0.00,,,0.00,weatherlink.com 1.10,2013-09-10 01:08:00,
2013-09-09 21:23:00,79.2,73.0,30.00,NE,48,1.0,2.0,82,0.00,,,0.00,weatherlink.com 1.10,2013-09-10 01:23:00,
2013-09-09 21:38:00,78.6,73.0,30.00,NE,48,2.0,2.0,83,0.00,,,0.00,weatherlink.com 1.10,2013-09-10 01:38:00,
2013-09-09 21:53:00,78.1,73.0,30.00,NE,48,2.0,2.0,84,0.00,,,0.00,weatherlink.com 1.10,2013-09-10 01:53:00,
2013-09-09 22:08:00,77.8,73.0,30.01,NE,48,0.0,0.0,85,0.00,,,0.00,weatherlink.com 1.10,2013-09-10 02:08:00,
2013-09-09 22:23:00,77.2,73.0,30.01,NE,48,0.0,1.0,87,0.00,,,0.00,weatherlink.com 1.10,2013-09-10 02:23:00,
2013-09-09 22:38:00,76.6,73.0,30.01,NE,48,2.0,2.0,88,0.00,,,0.00,weatherlink.com 1.10,2013-09-10 02:38:00,
2013-09-09 22:53:00,76.1,73.0,30.01,NE,40,2.0,3.0,90,0.00,,,0.00,weatherlink.com 1.10,2013-09-10 02:53:00,
2013-09-09 23:08:00,76.3,73.0,30.02,NE,55,1.0,6.0,90,0.00,,,0.00,weatherlink.com 1.10,2013-09-10 03:08:00,
2013-09-09 23:23:00,76.4,73.0,30.02,NE,44,5.0,5.0,90,0.00,,,0.00,weatherlink.com 1.10,2013-09-10 03:23:00,
2013-09-09 23:38:00,76.3,73.0,30.02,NE,49,3.0,4.0,90,0.00,,,0.00,weatherlink.com 1.10,2013-09-10 03:38:00,
2013-09-09 23:53:00,76.0,73.0,30.02,ENE,60,1.0,3.0,91,0.00,,,0.00,weatherlink.com 1.10,2013-09-10 03:53:00,